Theta_e
314 311 312 312 311 313 315 316 316 314 314 313 312 312 310 311 310 310 311 311 311 310 308 308 308 308 311 313 314 316 317 318 320 321 322 324 323 323 321 322 321 319 317 314
313 313 313 313 313 314 314 314 314 314 313 312 312 312 311 311 311 311 311 311 311 309 307 307 307 310 313 314 316 317 318 319 321 322 322 322 321 320 321 320 317 312 311 308
314 315 315 315 315 316 314 315 314 315 314 312 312 312 312 311 312 312 311 311 311 310 309 307 306 312 315 316 317 317 318 319 321 321 322 321 320 320 317 312 309 306 304 302
314 314 315 314 315 314 315 314 315 315 315 314 312 316 314 312 310 309 310 311 311 309 308 307 307 313 316 316 316 317 317 318 319 320 320 320 320 317 309 306 303 301 300 299
315 314 314 315 314 313 314 314 314 314 313 314 313 313 314 313 314 310 310 310 311 309 308 307 307 313 314 315 316 316 317 317 318 317 318 319 314 307 303 301 299 298 297 296
312 313 312 313 311 313 311 313 312 312 313 315 313 314 316 315 316 314 311 309 308 307 306 306 306 312 312 314 315 315 316 316 317 318 315 310 306 304 301 299 298 297 296 295
313 312 313 312 312 312 313 314 317 317 315 317 313 314 317 314 312 311 309 308 307 306 306 305 305 311 311 312 313 314 315 317 315 310 306 304 303 301 299 299 298 297 296 295
315 315 312 310 312 313 312 313 315 316 318 317 311 314 315 312 311 312 313 312 308 306 305 305 305 308 313 313 314 315 313 310 307 305 304 302 300 299 298 298 297 296 295 295
315 315 312 310 312 313 311 314 314 318 302 309 315 313 312 309 307 307 308 306 304 303 304 304 304 305 311 313 311 308 307 305 304 303 302 300 298 298 298 297 295 295 295 294
316 319 310 309 312 311 312 311 314 313 314 316 316 315 318 312 310 306 304 304 303 302 302 303 303 304 307 307 306 304 303 303 302 301 301 299 297 297 297 296 295 295 294 293
314 318 312 310 311 313 312 313 314 314 313 315 315 319 312 314 311 307 304 304 303 302 302 303 302 303 304 303 302 301 301 301 300 299 298 297 297 296 296 295 294 294 293 292
313 316 309 311 309 309 313 314 313 318 316 312 314 320 308 309 310 308 306 305 304 304 302 303 302 302 301 301 300 299 299 299 299 298 297 297 297 296 295 294 293 293 293 292
314 316 314 313 311 309 311 312 315 315 310 315 320 320 305 306 308 307 306 305 304 303 301 302 301 301 300 299 298 298 298 297 297 297 297 297 296 295 294 293 293 293 292 290
315 315 316 321 318 312 310 310 311 314 317 317 319 319 314 308 309 306 306 306 305 303 301 301 301 301 300 299 298 298 297 296 296 296 296 296 295 294 294 293 293 292 291 290
316 317 316 316 315 313 310 310 312 313 315 317 318 317 317 314 306 307 309 306 304 303 301 302 301 300 300 299 298 297 296 296 296 296 296 296 295 293 293 292 292 291 290 289
313 317 313 317 313 313 316 315 311 311 313 314 315 315 312 314 314 310 309 307 304 304 303 301 300 299 300 301 299 298 297 296 296 296 296 295 294 293 292 292 291 291 290 289
312 311 313 318 312 314 316 315 316 317 314 312 314 314 311 311 310 308 308 307 306 305 304 302 301 301 300 301 301 300 298 297 296 296 295 294 293 292 292 292 291 290 290 289
310 309 312 318 314 317 315 310 312 315 315 315 313 314 312 311 312 313 313 310 309 308 305 303 301 300 300 299 298 298 298 297 296 295 294 294 294 292 292 291 291 290 289 289
308 309 314 316 318 315 314 306 310 311 314 312 313 313 313 312 311 310 311 310 310 309 308 306 305 302 300 299 299 299 299 297 295 294 294 295 294 293 292 292 291 289 289 289
303 306 311 313 315 318 309 301 302 307 314 303 310 311 311 304 308 312 310 309 308 307 306 305 303 303 302 302 300 300 298 296 295 296 296 295 295 295 294 293 290 289 289 288
303 305 309 311 315 312 303 297 300 310 308 294 301 304 303 304 309 309 309 307 306 306 305 305 307 309 308 305 304 300 298 298 298 297 297 296 296 297 294 292 290 289 288 288
306 308 308 310 313 314 298 298 307 301 297 301 302 302 302 303 307 308 306 307 306 307 309 309 309 309 308 304 301 300 299 299 297 297 296 296 294 293 293 291 289 288 287 287
306 307 308 309 310 296 295 297 297 298 297 299 300 302 301 303 305 305 306 308 309 308 310 309 307 304 301 299 299 299 299 297 295 294 293 293 293 293 292 291 289 288 288 288
299 297 304 304 301 296 296 297 297 296 295 295 295 298 301 300 300 302 304 305 304 303 303 301 300 300 298 295 293 292 292 292 292 292 292 292 293 293 291 290 289 289 289 289
296 298 299 299 296 295 298 296 298 299 298 294 294 296 299 300 300 298 298 299 300 299 298 296 295 292 292 292 292 291 291 291 291 291 291 292 292 291 290 289 289 289 289 288
294 298 301 301 298 299 299 300 298 299 299 296 294 295 296 296 295 295 296 295 295 294 293 292 292 292 292 291 291 291 291 290 290 290 290 290 290 290 289 289 288 288 288 287
Wind_Speed
5 4 8 13 9 6 3 3 4 5 4 5 10 9 11 25 24 24 27 31 30 27 23 19 16 15 14 13 12 15 19 22 23 24 24 25 23 22 19 18 16 13 11 11
3 8 12 6 8 8 8 8 11 6 5 6 7 13 9 13 22 31 37 38 36 30 27 22 19 17 15 15 17 20 23 24 27 26 24 25 23 22 21 19 17 17 15 13
8 7 9 10 5 6 7 7 5 8 1 3 4 9 9 9 26 29 37 38 40 39 33 25 22 21 20 21 23 26 28 28 29 28 28 25 26 25 22 23 22 19 16 13
9 11 4 5 7 9 10 6 6 6 1 6 4 9 7 7 10 11 29 38 41 38 31 26 24 26 26 26 27 28 26 26 26 26 25 26 25 26 28 25 22 19 15 12
9 8 8 12 9 9 6 2 3 3 3 2 2 5 5 9 11 11 22 32 41 40 35 29 29 31 30 29 31 29 28 28 27 26 27 27 29 31 28 25 22 18 15 11
5 3 6 8 3 6 7 6 6 4 3 5 10 9 6 9 17 10 14 30 36 38 34 29 30 33 33 33 33 31 29 29 29 29 29 30 31 30 29 25 19 16 13 10
1 5 3 6 5 2 5 7 2 3 1 8 5 9 21 7 6 10 15 31 38 39 36 35 37 40 39 38 36 34 33 33 33 33 32 30 29 27 23 20 16 14 12 10
10 6 14 8 9 8 8 9 6 7 5 4 2 8 6 9 9 18 22 33 43 43 41 39 40 41 42 41 39 38 37 36 36 33 31 31 28 25 22 18 15 13 11 9
7 6 3 1 4 13 5 9 5 2 2 2 6 8 8 4 8 5 15 29 38 44 46 42 41 41 41 42 41 40 39 37 35 34 34 33 28 25 22 18 14 11 11 8
5 4 3 1 5 3 7 6 2 1 3 6 5 7 12 5 12 8 9 21 29 38 42 42 42 41 42 42 41 39 37 36 35 34 32 30 27 25 21 17 14 13 11 10
5 3 1 2 7 14 5 5 4 5 5 5 3 9 5 9 12 12 14 28 35 41 45 43 43 44 44 43 42 40 39 37 36 34 32 30 28 25 21 18 16 15 13 12
12 3 5 9 5 3 1 8 6 6 8 4 3 20 5 3 4 14 19 27 34 41 43 44 45 47 48 47 46 44 42 40 37 35 33 31 29 26 24 21 18 17 15 14
9 4 1 5 4 3 6 9 20 7 3 12 7 16 3 6 1 8 19 27 32 37 39 43 47 51 50 50 47 45 43 41 39 37 35 33 30 28 26 23 21 19 17 15
17 6 10 16 3 6 8 9 11 16 9 8 25 30 12 3 4 6 16 26 34 38 42 44 49 54 54 52 50 47 45 42 39 38 36 33 31 29 26 24 23 21 19 16
11 10 14 20 7 5 3 8 20 21 31 14 30 22 27 13 11 18 22 22 29 35 41 47 51 55 56 55 52 50 46 44 42 40 37 34 32 29 28 28 25 23 20 18
3 5 7 18 9 8 12 11 16 21 24 25 26 29 9 13 21 17 25 31 38 42 45 47 48 53 59 59 57 54 50 46 43 41 38 36 34 32 32 30 27 25 23 21
7 4 6 13 6 9 10 32 27 23 20 19 23 36 4 12 12 19 26 33 38 42 46 47 51 55 57 60 60 57 52 49 46 43 41 38 35 34 33 31 29 27 26 23
8 10 5 8 6 11 12 0 14 23 29 27 28 32 17 23 31 40 41 37 41 42 43 44 46 47 49 52 54 52 50 47 47 45 41 38 36 35 33 32 30 31 28 26
9 9 6 5 9 6 9 5 8 9 18 20 25 29 33 29 23 30 27 35 40 42 42 42 41 42 41 41 41 42 47 48 46 44 41 40 38 35 34 33 34 32 30 28
2 8 7 4 5 7 4 2 2 6 12 7 18 23 20 11 7 19 25 26 31 31 33 33 32 29 27 29 33 33 38 41 42 43 43 40 35 33 32 35 33 31 31 27
3 3 12 12 7 5 5 4 1 6 6 3 4 10 8 8 13 11 16 22 23 22 24 22 19 17 20 25 21 27 34 36 36 37 36 34 32 32 33 31 32 31 29 28
10 9 5 5 6 7 8 4 7 1 2 5 4 6 10 9 6 13 20 21 22 22 21 16 15 19 20 21 24 29 31 29 29 30 29 29 30 30 30 30 30 30 30 30
4 6 7 8 5 2 8 4 4 2 3 4 5 4 5 8 9 15 15 16 16 17 18 20 20 19 21 24 24 23 22 21 22 23 25 25 26 27 27 28 29 29 29 30
3 0 2 3 6 4 8 9 8 5 2 4 4 5 7 7 5 10 12 14 14 14 15 17 18 19 21 19 17 14 14 16 18 20 22 23 24 26 26 27 27 28 29 30
3 5 4 4 4 6 14 16 11 8 3 2 2 1 4 7 7 7 9 11 12 14 16 17 19 20 18 14 12 11 12 14 17 18 19 21 24 26 27 27 27 28 29 29
6 6 5 5 7 5 4 11 20 11 5 1 2 3 6 5 7 9 12 13 14 16 17 18 18 16 14 12 11 9 11 14 17 20 21 23 25 28 30 30 29 30 31 32
Wind_Direction
187 126 204 207 193 196 209 227 250 260 230 154 225 242 225 215 218 222 218 216 215 222 224 228 235 226 217 210 200 170 166 168 174 177 180 179 178 175 179 179 173 170 166 148
88 228 227 198 205 217 240 253 266 291 204 172 258 253 245 208 224 221 220 220 213 211 214 220 224 212 205 201 178 169 168 169 170 175 180 180 179 174 177 171 163 151 144 138
182 212 213 200 213 188 214 209 236 231 243 264 305 270 254 240 229 229 230 228 217 214 213 212 211 200 190 185 179 173 171 174 175 177 178 177 176 170 166 160 154 146 144 136
232 224 171 167 212 191 239 210 213 238 229 251 156 285 241 247 232 220 224 220 214 208 212 213 204 192 188 183 183 179 179 180 180 179 182 186 181 173 160 157 151 144 142 142
228 186 191 217 210 174 233 83 198 220 213 312 225 296 249 208 240 242 228 210 211 207 207 206 202 194 190 190 187 187 185 184 183 182 186 185 175 166 159 155 153 150 146 144
218 162 162 196 69 169 148 71 39 41 59 262 212 213 210 216 231 245 214 205 199 198 202 206 199 193 192 192 191 189 188 188 186 185 181 178 176 169 163 158 157 152 152 145
153 205 171 145 109 56 133 121 279 322 295 246 216 224 250 295 226 217 199 198 197 199 200 199 196 193 193 195 194 193 194 188 182 177 176 179 177 172 167 162 164 158 154 150
192 267 172 191 182 171 195 166 163 214 215 273 346 239 251 231 242 254 237 213 198 198 199 200 201 197 195 196 195 193 189 185 180 181 181 179 179 175 172 170 163 162 161 156
178 256 87 97 154 160 201 211 167 347 89 8 220 278 288 253 256 261 202 186 186 192 197 201 201 199 195 193 191 187 185 186 185 184 182 181 181 182 181 171 167 174 172 171
223 262 24 192 101 59 151 163 106 101 201 251 271 260 236 212 244 224 198 185 187 191 198 200 200 197 194 192 189 188 189 190 186 185 186 186 186 188 186 180 179 183 183 187
181 178 321 132 201 173 164 192 191 142 166 192 282 262 220 221 219 207 198 194 191 193 201 201 200 197 194 193 193 191 191 191 189 187 188 189 191 193 189 188 187 190 194 193
201 167 182 203 267 276 269 190 165 174 215 234 174 266 180 138 227 200 203 198 199 202 205 204 202 198 196 196 195 194 193 193 194 192 192 193 196 196 195 194 194 199 203 199
174 189 113 323 345 343 208 208 210 224 62 211 198 256 32 61 92 217 201 198 197 200 202 205 204 203 200 200 199 198 198 197 196 195 196 197 198 199 199 200 203 207 207 204
171 160 206 225 172 143 191 196 206 207 229 202 231 261 227 170 225 214 215 210 202 202 203 207 207 207 206 205 204 203 202 201 199 199 200 201 203 204 205 207 211 211 209 209
161 215 219 244 221 111 198 212 210 208 225 204 253 236 253 234 222 225 231 208 202 203 203 211 211 210 210 209 209 208 207 205 205 205 204 205 207 207 209 213 214 215 214 213
341 220 178 253 236 240 246 247 228 231 241 237 252 264 102 236 246 231 222 210 203 209 214 212 212 214 214 213 213 213 211 210 209 210 209 209 208 210 214 217 217 218 219 217
170 176 170 246 163 232 249 233 240 233 234 230 237 247 168 253 241 234 228 216 213 214 218 214 217 218 218 217 217 216 215 214 213 214 214 213 213 216 219 221 221 224 225 223
172 196 212 254 150 217 241 133 218 221 233 229 245 257 240 248 253 259 255 240 230 229 222 219 218 221 221 220 220 219 220 221 220 217 216 216 219 221 223 225 226 228 226 229
165 185 221 220 228 287 292 198 156 165 247 225 230 248 254 254 253 258 256 248 245 236 229 224 222 219 220 223 226 225 226 225 222 221 221 223 223 224 227 230 231 229 230 233
71 213 203 177 215 212 267 276 225 109 265 203 205 237 250 156 225 257 244 237 229 225 222 217 213 214 220 223 225 228 230 227 225 226 226 226 228 231 233 237 233 233 234 238
139 193 221 236 247 256 236 202 310 144 248 332 313 293 183 205 237 279 225 213 215 203 189 183 195 211 218 222 231 232 228 227 230 228 229 229 231 239 237 236 234 234 235 241
174 178 198 213 232 247 164 105 176 242 11 0 330 287 225 229 212 192 185 180 178 180 188 206 235 241 232 229 224 222 223 227 226 226 228 230 233 235 234 232 232 234 238 245
215 196 178 193 208 182 197 174 195 244 332 341 331 319 230 209 184 181 183 187 200 203 206 218 216 209 203 205 211 217 219 217 217 220 224 228 231 232 229 228 229 234 241 249
237 132 166 129 209 217 223 215 195 199 284 320 293 255 217 215 201 203 205 202 199 195 194 185 181 184 185 181 179 182 196 210 219 227 230 230 227 224 223 225 231 239 245 251
200 147 159 284 263 304 258 229 199 181 173 2 18 166 207 208 211 216 198 177 171 170 172 173 171 171 166 167 175 191 209 220 226 230 233 233 232 229 227 233 240 247 253 256
198 175 181 219 196 158 271 263 206 216 202 353 36 140 142 157 163 160 163 163 169 173 174 174 174 178 179 183 194 212 229 238 239 238 238 239 239 237 237 242 247 251 255 259